Location: Peebles
(55.6412°N, 3.1714°W)
Time: 12:17:53
(UTC+00:00)

CUTE-I - Pass Details

Date: 14 December 2023
Orbit: 807 x 823 km, 98.7° (Epoch: 24 February)

Event Time Altitude Azimuth Distance (km) Brightness Sun altitude
Rises 05:12:59 0° 24° (NNE) 3,370 ? -26.5°
Reaches altitude 10° 05:16:09 10° 44° (NE) 2,433 ? -26.1°
Maximum altitude 05:19:45 18° 86° (E) 1,930 ? -25.6°
Drops below altitude 10° 05:23:19 10° 128° (SE) 2,423 ? -25.1°
Sets 05:26:27 0° 147° (SSE) 3,351 ? -24.6°
